Year,Month,Day,Hour,Minute,Value (Times are PST for temperature in C)
2014,09,14,00,00,12.20
2014,09,14,00,01,12.10
2014,09,14,00,02,12.10
2014,09,14,00,03,12.10
2014,09,14,00,04,12.10
2014,09,14,00,05,12.10
2014,09,14,00,06,12.10
2014,09,14,00,07,12.10
2014,09,14,00,08,12.10
2014,09,14,00,09,12.00
2014,09,14,00,10,12.00
2014,09,14,00,11,12.00
2014,09,14,00,12,11.90
2014,09,14,00,13,11.90
2014,09,14,00,14,11.90
2014,09,14,00,15,11.90
2014,09,14,00,16,11.90
2014,09,14,00,17,11.90
2014,09,14,00,18,11.90
2014,09,14,00,19,11.80
2014,09,14,00,20,11.80
2014,09,14,00,21,11.80
2014,09,14,00,22,11.80
2014,09,14,00,23,11.80
2014,09,14,00,24,11.70
2014,09,14,00,25,11.70
2014,09,14,00,26,11.70
2014,09,14,00,27,11.60
2014,09,14,00,28,11.60
2014,09,14,00,29,11.60
2014,09,14,00,30,11.60
2014,09,14,00,31,11.50
2014,09,14,00,32,11.50
2014,09,14,00,33,11.50
2014,09,14,00,34,11.50
2014,09,14,00,35,11.50
2014,09,14,00,36,11.50
2014,09,14,00,37,11.60
2014,09,14,00,38,11.50
2014,09,14,00,39,11.60
2014,09,14,00,40,11.60
2014,09,14,00,41,11.60
2014,09,14,00,42,11.60
2014,09,14,00,43,11.50
2014,09,14,00,44,11.50
2014,09,14,00,45,11.50
2014,09,14,00,46,11.50
2014,09,14,00,47,11.50
2014,09,14,00,48,11.50
2014,09,14,00,49,11.50
2014,09,14,00,50,11.50
2014,09,14,00,51,11.50
2014,09,14,00,52,11.50
2014,09,14,00,53,11.50
2014,09,14,00,54,11.50
2014,09,14,00,55,11.50
2014,09,14,00,56,11.50
2014,09,14,00,57,11.50
2014,09,14,00,58,11.50
2014,09,14,00,59,11.50
2014,09,14,01,00,11.50
2014,09,14,01,01,11.50
2014,09,14,01,02,11.50
2014,09,14,01,03,11.50
2014,09,14,01,04,11.50
2014,09,14,01,05,11.50
2014,09,14,01,06,11.50
2014,09,14,01,07,11.50
2014,09,14,01,08,11.50
2014,09,14,01,09,11.50
2014,09,14,01,10,11.50
2014,09,14,01,11,11.50
2014,09,14,01,12,11.50
2014,09,14,01,13,11.50
2014,09,14,01,14,11.40
2014,09,14,01,15,11.40
2014,09,14,01,16,11.40
2014,09,14,01,17,11.40
2014,09,14,01,18,11.30
2014,09,14,01,19,11.30
2014,09,14,01,20,11.30
2014,09,14,01,21,11.30
2014,09,14,01,22,11.30
2014,09,14,01,23,11.20
2014,09,14,01,24,11.20
2014,09,14,01,25,11.20
2014,09,14,01,26,11.10
2014,09,14,01,27,11.10
2014,09,14,01,28,11.10
2014,09,14,01,29,11.10
2014,09,14,01,30,11.10
2014,09,14,01,31,11.00
2014,09,14,01,32,11.00
2014,09,14,01,33,11.00
2014,09,14,01,34,11.00
2014,09,14,01,35,10.90
2014,09,14,01,36,10.90
2014,09,14,01,37,10.90
2014,09,14,01,38,10.90
2014,09,14,01,39,10.90
2014,09,14,01,40,10.80
2014,09,14,01,41,10.80
2014,09,14,01,42,10.80
2014,09,14,01,43,10.80
2014,09,14,01,44,10.80
2014,09,14,01,45,10.80
2014,09,14,01,46,10.80
2014,09,14,01,47,10.80
2014,09,14,01,48,10.80
2014,09,14,01,49,10.80
2014,09,14,01,50,10.90
2014,09,14,01,51,10.90
2014,09,14,01,52,10.90
2014,09,14,01,53,10.90
2014,09,14,01,54,10.90
2014,09,14,01,55,10.90
2014,09,14,01,56,10.90
2014,09,14,01,57,10.90
2014,09,14,01,58,10.90
2014,09,14,01,59,10.90
2014,09,14,02,00,10.80
2014,09,14,02,01,10.80
2014,09,14,02,02,10.80
2014,09,14,02,03,10.80
2014,09,14,02,04,10.80
2014,09,14,02,05,10.80
2014,09,14,02,06,10.70
2014,09,14,02,07,10.80
2014,09,14,02,08,10.70
2014,09,14,02,09,10.70
2014,09,14,02,10,10.70
2014,09,14,02,11,10.70
2014,09,14,02,12,10.70
2014,09,14,02,13,10.70
2014,09,14,02,14,10.70
2014,09,14,02,15,10.70
2014,09,14,02,16,10.70
2014,09,14,02,17,10.70
2014,09,14,02,18,10.70
2014,09,14,02,19,10.70
2014,09,14,02,20,10.70
2014,09,14,02,21,10.70
2014,09,14,02,22,10.70
2014,09,14,02,23,10.70
2014,09,14,02,24,10.70
2014,09,14,02,25,10.70
2014,09,14,02,26,10.70
2014,09,14,02,27,10.70
2014,09,14,02,28,10.70
2014,09,14,02,29,10.70
2014,09,14,02,30,10.70
2014,09,14,02,31,10.70
2014,09,14,02,32,10.70
2014,09,14,02,33,10.70
2014,09,14,02,34,10.70
2014,09,14,02,35,10.70
2014,09,14,02,36,10.70
2014,09,14,02,37,10.70
2014,09,14,02,38,10.70
2014,09,14,02,39,10.70
2014,09,14,02,40,10.70
2014,09,14,02,41,10.70
2014,09,14,02,42,10.80
2014,09,14,02,43,10.80
2014,09,14,02,44,10.80
2014,09,14,02,45,10.80
2014,09,14,02,46,10.80
2014,09,14,02,47,10.90
2014,09,14,02,48,10.90
2014,09,14,02,49,10.90
2014,09,14,02,50,11.00
2014,09,14,02,51,11.00
2014,09,14,02,52,11.00
2014,09,14,02,53,11.00
2014,09,14,02,54,11.00
2014,09,14,02,55,11.00
2014,09,14,02,56,11.10
2014,09,14,02,57,11.10
2014,09,14,02,58,11.20
2014,09,14,02,59,11.30
2014,09,14,03,00,11.30
2014,09,14,03,01,11.50
2014,09,14,03,02,11.60
2014,09,14,03,03,11.70
2014,09,14,03,04,11.80
2014,09,14,03,05,11.90
2014,09,14,03,06,12.00
2014,09,14,03,07,12.00
2014,09,14,03,08,12.10
2014,09,14,03,09,12.30
2014,09,14,03,10,12.40
2014,09,14,03,11,12.50
2014,09,14,03,12,12.60
2014,09,14,03,13,12.70
2014,09,14,03,14,12.70
2014,09,14,03,15,12.70
2014,09,14,03,16,12.70
2014,09,14,03,17,12.70
2014,09,14,03,18,12.80
2014,09,14,03,19,12.80
2014,09,14,03,20,12.90
2014,09,14,03,21,13.10
2014,09,14,03,22,13.20
2014,09,14,03,23,13.30
2014,09,14,03,24,13.40
2014,09,14,03,25,13.40
2014,09,14,03,26,13.40
2014,09,14,03,27,13.30
2014,09,14,03,28,13.30
2014,09,14,03,29,13.20
2014,09,14,03,30,13.20
2014,09,14,03,31,13.10
2014,09,14,03,32,13.00
2014,09,14,03,33,12.90
2014,09,14,03,34,12.80
2014,09,14,03,35,12.70
2014,09,14,03,36,12.60
2014,09,14,03,37,12.60
2014,09,14,03,38,12.50
2014,09,14,03,39,12.50
2014,09,14,03,40,12.40
2014,09,14,03,41,12.30
2014,09,14,03,42,12.30
2014,09,14,03,43,12.30
2014,09,14,03,44,12.30
2014,09,14,03,45,12.30
2014,09,14,03,46,12.20
2014,09,14,03,47,12.20
2014,09,14,03,48,12.20
2014,09,14,03,49,12.30
2014,09,14,03,50,12.30
2014,09,14,03,51,12.30
2014,09,14,03,52,12.40
2014,09,14,03,53,12.40
2014,09,14,03,54,12.40
2014,09,14,03,55,12.50
2014,09,14,03,56,12.50
2014,09,14,03,57,12.40
2014,09,14,03,58,12.40
2014,09,14,03,59,12.40
2014,09,14,04,00,12.40
2014,09,14,04,01,12.40
2014,09,14,04,02,12.40
2014,09,14,04,03,12.40
2014,09,14,04,04,12.30
2014,09,14,04,05,12.30
2014,09,14,04,06,12.30
2014,09,14,04,07,12.20
2014,09,14,04,08,12.20
2014,09,14,04,09,12.10
2014,09,14,04,10,12.10
2014,09,14,04,11,12.30
2014,09,14,04,12,12.30
2014,09,14,04,13,12.40
2014,09,14,04,14,12.50
2014,09,14,04,15,12.60
2014,09,14,04,16,12.70
2014,09,14,04,17,12.80
2014,09,14,04,18,12.90
2014,09,14,04,19,12.90
2014,09,14,04,20,12.90
2014,09,14,04,21,12.90
2014,09,14,04,22,12.90
2014,09,14,04,23,12.80
2014,09,14,04,24,12.80
2014,09,14,04,25,12.80
2014,09,14,04,26,12.80
2014,09,14,04,27,12.80
2014,09,14,04,28,12.80
2014,09,14,04,29,12.80
2014,09,14,04,30,12.70
2014,09,14,04,31,12.80
2014,09,14,04,32,12.80
2014,09,14,04,33,12.80
2014,09,14,04,34,12.80
2014,09,14,04,35,12.80
2014,09,14,04,36,12.80
2014,09,14,04,37,12.80
2014,09,14,04,38,12.80
2014,09,14,04,39,12.80
2014,09,14,04,40,12.70
2014,09,14,04,41,12.70
2014,09,14,04,42,12.70
2014,09,14,04,43,12.60
2014,09,14,04,44,12.50
2014,09,14,04,45,12.50
2014,09,14,04,46,12.40
2014,09,14,04,47,12.40
2014,09,14,04,48,12.30
2014,09,14,04,49,12.20
2014,09,14,04,50,12.20
2014,09,14,04,51,12.10
2014,09,14,04,52,12.10
2014,09,14,04,53,12.00
2014,09,14,04,54,12.00
2014,09,14,04,55,11.90
2014,09,14,04,56,11.90
2014,09,14,04,57,11.90
2014,09,14,04,58,11.80
2014,09,14,04,59,11.80
2014,09,14,05,00,11.80
2014,09,14,05,01,11.80
2014,09,14,05,02,11.70
2014,09,14,05,03,11.70
2014,09,14,05,04,11.70
2014,09,14,05,05,11.70
2014,09,14,05,06,11.60
2014,09,14,05,07,11.60
2014,09,14,05,08,11.60
2014,09,14,05,09,11.50
2014,09,14,05,10,11.50
2014,09,14,05,11,11.50
2014,09,14,05,12,11.50
2014,09,14,05,13,11.40
2014,09,14,05,14,11.40
2014,09,14,05,15,11.40
2014,09,14,05,16,11.40
2014,09,14,05,17,11.30
2014,09,14,05,18,11.30
2014,09,14,05,19,11.30
2014,09,14,05,20,11.30
2014,09,14,05,21,11.40
2014,09,14,05,22,11.40
2014,09,14,05,23,11.40
2014,09,14,05,24,11.40
2014,09,14,05,25,11.40
2014,09,14,05,26,11.50
2014,09,14,05,27,11.50
2014,09,14,05,28,11.50
2014,09,14,05,29,11.60
2014,09,14,05,30,11.60
2014,09,14,05,31,11.60
2014,09,14,05,32,11.60
2014,09,14,05,33,11.60
2014,09,14,05,34,11.60
2014,09,14,05,35,11.60
2014,09,14,05,36,11.60
2014,09,14,05,37,11.60
2014,09,14,05,38,11.60
2014,09,14,05,39,11.60
2014,09,14,05,40,11.60
2014,09,14,05,41,11.50
2014,09,14,05,42,11.50
2014,09,14,05,43,11.50
2014,09,14,05,44,11.40
2014,09,14,05,45,11.40
2014,09,14,05,46,11.40
2014,09,14,05,47,11.40
2014,09,14,05,48,11.40
2014,09,14,05,49,11.40
2014,09,14,05,50,11.40
2014,09,14,05,51,11.30
2014,09,14,05,52,11.30
2014,09,14,05,53,11.30
2014,09,14,05,54,11.20
2014,09,14,05,55,11.20
2014,09,14,05,56,11.20
2014,09,14,05,57,11.20
2014,09,14,05,58,11.20
2014,09,14,05,59,11.20
2014,09,14,06,00,11.20
2014,09,14,06,01,11.20
2014,09,14,06,02,11.20
2014,09,14,06,03,11.30
2014,09,14,06,04,11.20
2014,09,14,06,05,11.20
2014,09,14,06,06,11.20
2014,09,14,06,07,11.20
2014,09,14,06,08,11.20
2014,09,14,06,09,11.20
2014,09,14,06,10,11.20
2014,09,14,06,11,11.10
2014,09,14,06,12,11.00
2014,09,14,06,13,11.00
2014,09,14,06,14,10.90
2014,09,14,06,15,10.90
2014,09,14,06,16,10.90
2014,09,14,06,17,10.90
2014,09,14,06,18,10.90
2014,09,14,06,19,10.80
2014,09,14,06,20,10.80
2014,09,14,06,21,10.80
2014,09,14,06,22,10.80
2014,09,14,06,23,10.80
2014,09,14,06,24,10.70
2014,09,14,06,25,10.70
2014,09,14,06,26,10.70
2014,09,14,06,27,10.60
2014,09,14,06,28,10.60
2014,09,14,06,29,10.60
2014,09,14,06,30,10.60
2014,09,14,06,31,10.50
2014,09,14,06,32,10.50
2014,09,14,06,33,10.40
2014,09,14,06,34,10.40
2014,09,14,06,35,10.40
2014,09,14,06,36,10.30
2014,09,14,06,37,10.30
2014,09,14,06,38,10.30
2014,09,14,06,39,10.30
2014,09,14,06,40,10.30
2014,09,14,06,41,10.30
2014,09,14,06,42,10.30
2014,09,14,06,43,10.30
2014,09,14,06,44,10.30
2014,09,14,06,45,10.30
2014,09,14,06,46,10.20
2014,09,14,06,47,10.20
2014,09,14,06,48,10.20
2014,09,14,06,49,10.20
2014,09,14,06,50,10.20
2014,09,14,06,51,10.20
2014,09,14,06,52,10.20
2014,09,14,06,53,10.20
2014,09,14,06,54,10.20
2014,09,14,06,55,10.20
2014,09,14,06,56,10.20
2014,09,14,06,57,10.20
2014,09,14,06,58,10.20
2014,09,14,06,59,10.20
2014,09,14,07,00,10.20
2014,09,14,07,01,10.20
2014,09,14,07,02,10.10
2014,09,14,07,03,10.10
2014,09,14,07,04,10.10
2014,09,14,07,05,10.10
2014,09,14,07,06,10.10
2014,09,14,07,07,10.10
2014,09,14,07,08,10.10
2014,09,14,07,09,10.10
2014,09,14,07,10,10.10
2014,09,14,07,11,10.10
2014,09,14,07,12,10.10
2014,09,14,07,13,10.10
2014,09,14,07,14,10.10
2014,09,14,07,15,10.10
2014,09,14,07,16,10.10
2014,09,14,07,17,10.10
2014,09,14,07,18,10.10
2014,09,14,07,19,10.10
2014,09,14,07,20,10.10
2014,09,14,07,21,10.10
2014,09,14,07,22,10.10
2014,09,14,07,23,10.00
2014,09,14,07,24,10.00
2014,09,14,07,25,10.00
2014,09,14,07,26,10.00
2014,09,14,07,27,10.00
2014,09,14,07,28,10.00
2014,09,14,07,29,10.00
2014,09,14,07,30,9.90
2014,09,14,07,31,9.90
2014,09,14,07,32,9.90
2014,09,14,07,33,9.90
2014,09,14,07,34,9.90
2014,09,14,07,35,9.90
2014,09,14,07,36,9.90
2014,09,14,07,37,9.80
2014,09,14,07,38,9.80
2014,09,14,07,39,9.80
2014,09,14,07,40,9.90
2014,09,14,07,41,9.90
2014,09,14,07,42,9.90
2014,09,14,07,43,9.90
2014,09,14,07,44,9.90
2014,09,14,07,45,9.90
2014,09,14,07,46,9.90
2014,09,14,07,47,9.90
2014,09,14,07,48,9.90
2014,09,14,07,49,9.90
2014,09,14,07,50,9.90
2014,09,14,07,51,9.90
2014,09,14,07,52,9.90
2014,09,14,07,53,9.90
2014,09,14,07,54,9.90
2014,09,14,07,55,9.90
2014,09,14,07,56,10.00
2014,09,14,07,57,10.00
2014,09,14,07,58,10.00
2014,09,14,07,59,10.00
2014,09,14,08,00,10.00
2014,09,14,08,01,10.10
2014,09,14,08,02,10.10
2014,09,14,08,03,10.10
2014,09,14,08,04,10.10
2014,09,14,08,05,10.20
2014,09,14,08,06,10.20
2014,09,14,08,07,10.20
2014,09,14,08,08,10.30
2014,09,14,08,09,10.30
2014,09,14,08,10,10.40
2014,09,14,08,11,10.40
2014,09,14,08,12,10.50
2014,09,14,08,13,10.50
2014,09,14,08,14,10.60
2014,09,14,08,15,10.60
2014,09,14,08,16,10.60
2014,09,14,08,17,10.70
2014,09,14,08,18,10.70
2014,09,14,08,19,10.80
2014,09,14,08,20,10.80
2014,09,14,08,21,10.90
2014,09,14,08,22,10.90
2014,09,14,08,23,10.90
2014,09,14,08,24,11.00
2014,09,14,08,25,11.10
2014,09,14,08,26,11.10
2014,09,14,08,27,11.10
2014,09,14,08,28,11.20
2014,09,14,08,29,11.20
2014,09,14,08,30,11.20
2014,09,14,08,31,11.30
2014,09,14,08,32,11.30
2014,09,14,08,33,11.30
2014,09,14,08,34,11.30
2014,09,14,08,35,11.40
2014,09,14,08,36,11.40
2014,09,14,08,37,11.50
2014,09,14,08,38,11.50
2014,09,14,08,39,11.60
2014,09,14,08,40,11.60
2014,09,14,08,41,11.70
2014,09,14,08,42,11.80
2014,09,14,08,43,11.90
2014,09,14,08,44,12.00
2014,09,14,08,45,12.00
2014,09,14,08,46,12.10
2014,09,14,08,47,12.20
2014,09,14,08,48,12.30
2014,09,14,08,49,12.40
2014,09,14,08,50,12.50
2014,09,14,08,51,12.60
2014,09,14,08,52,12.70
2014,09,14,08,53,12.70
2014,09,14,08,54,12.70
2014,09,14,08,55,12.80
2014,09,14,08,56,12.90
2014,09,14,08,57,12.90
2014,09,14,08,58,13.00
2014,09,14,08,59,13.10
2014,09,14,09,00,13.20
2014,09,14,09,01,13.20
2014,09,14,09,02,13.30
2014,09,14,09,03,13.40
2014,09,14,09,04,13.40
2014,09,14,09,05,13.50
2014,09,14,09,06,13.70
2014,09,14,09,07,13.70
2014,09,14,09,08,13.80
2014,09,14,09,09,13.80
2014,09,14,09,10,13.90
2014,09,14,09,11,14.00
2014,09,14,09,12,14.10
2014,09,14,09,13,14.10
2014,09,14,09,14,14.30
2014,09,14,09,15,14.30
2014,09,14,09,16,14.30
2014,09,14,09,17,14.40
2014,09,14,09,18,14.50
2014,09,14,09,19,14.60
2014,09,14,09,20,14.70
2014,09,14,09,21,14.70
2014,09,14,09,22,14.90
2014,09,14,09,23,15.00
2014,09,14,09,24,15.10
2014,09,14,09,25,15.30
2014,09,14,09,26,15.50
2014,09,14,09,27,15.60
2014,09,14,09,28,15.80
2014,09,14,09,29,15.90
2014,09,14,09,30,16.00
2014,09,14,09,31,16.20
2014,09,14,09,32,16.20
2014,09,14,09,33,16.30
2014,09,14,09,34,16.40
2014,09,14,09,35,16.50
2014,09,14,09,36,16.60
2014,09,14,09,37,16.70
2014,09,14,09,38,16.80
2014,09,14,09,39,16.90
2014,09,14,09,40,16.90
2014,09,14,09,41,17.00
2014,09,14,09,42,17.00
2014,09,14,09,43,17.10
2014,09,14,09,44,17.20
2014,09,14,09,45,17.20
2014,09,14,09,46,17.30
2014,09,14,09,47,17.40
2014,09,14,09,48,17.50
2014,09,14,09,49,17.50
2014,09,14,09,50,17.60
2014,09,14,09,51,17.60
2014,09,14,09,52,17.60
2014,09,14,09,53,17.60
2014,09,14,09,54,17.70
2014,09,14,09,55,17.70
2014,09,14,09,56,17.70
2014,09,14,09,57,17.70
2014,09,14,09,58,17.70
2014,09,14,09,59,17.70
2014,09,14,10,00,17.70
2014,09,14,10,01,17.70
2014,09,14,10,02,17.70
2014,09,14,10,03,17.70
2014,09,14,10,04,17.70
2014,09,14,10,05,17.70
2014,09,14,10,06,17.70
2014,09,14,10,07,17.80
2014,09,14,10,08,17.80
2014,09,14,10,09,17.90
2014,09,14,10,10,18.00
2014,09,14,10,11,18.00
2014,09,14,10,12,18.10
2014,09,14,10,13,18.20
2014,09,14,10,14,18.30
2014,09,14,10,15,18.40
2014,09,14,10,16,18.50
2014,09,14,10,17,18.50
2014,09,14,10,18,18.60
2014,09,14,10,19,18.60
2014,09,14,10,20,18.60
2014,09,14,10,21,18.70
2014,09,14,10,22,18.70
2014,09,14,10,23,18.70
2014,09,14,10,24,18.70
2014,09,14,10,25,18.80
2014,09,14,10,26,18.80
2014,09,14,10,27,18.90
2014,09,14,10,28,18.90
2014,09,14,10,29,18.90
2014,09,14,10,30,19.00
2014,09,14,10,31,19.10
2014,09,14,10,32,19.10
2014,09,14,10,33,19.10
2014,09,14,10,34,19.10
2014,09,14,10,35,19.10
2014,09,14,10,36,19.10
2014,09,14,10,37,19.10
2014,09,14,10,38,19.10
2014,09,14,10,39,19.10
2014,09,14,10,40,19.20
2014,09,14,10,41,19.20
2014,09,14,10,42,19.20
2014,09,14,10,43,19.20
2014,09,14,10,44,19.20
2014,09,14,10,45,19.30
2014,09,14,10,46,19.30
2014,09,14,10,47,19.40
2014,09,14,10,48,19.40
2014,09,14,10,49,19.40
2014,09,14,10,50,19.50
2014,09,14,10,51,19.50
2014,09,14,10,52,19.60
2014,09,14,10,53,19.60
2014,09,14,10,54,19.70
2014,09,14,10,55,19.70
2014,09,14,10,56,19.80
2014,09,14,10,57,19.80
2014,09,14,10,58,19.90
2014,09,14,10,59,19.90
2014,09,14,11,00,19.90
2014,09,14,11,01,20.00
2014,09,14,11,02,20.00
2014,09,14,11,03,20.00
2014,09,14,11,04,20.10
2014,09,14,11,05,20.20
2014,09,14,11,06,20.20
2014,09,14,11,07,20.30
2014,09,14,11,08,20.40
2014,09,14,11,09,20.40
2014,09,14,11,10,20.40
2014,09,14,11,11,20.50
2014,09,14,11,12,20.50
2014,09,14,11,13,20.60
2014,09,14,11,14,20.60
2014,09,14,11,15,20.70
2014,09,14,11,16,20.70
2014,09,14,11,17,20.80
2014,09,14,11,18,20.90
2014,09,14,11,19,21.00
2014,09,14,11,20,21.10
2014,09,14,11,21,21.10
2014,09,14,11,22,21.20
2014,09,14,11,23,21.20
2014,09,14,11,24,21.30
2014,09,14,11,25,21.40
2014,09,14,11,26,21.40
2014,09,14,11,27,21.50
2014,09,14,11,28,21.50
2014,09,14,11,29,21.60
2014,09,14,11,30,21.60
2014,09,14,11,31,21.60
2014,09,14,11,32,21.60
2014,09,14,11,33,21.70
2014,09,14,11,34,21.70
2014,09,14,11,35,21.80
2014,09,14,11,36,21.80
2014,09,14,11,37,21.90
2014,09,14,11,38,22.00
2014,09,14,11,39,22.10
2014,09,14,11,40,22.10
2014,09,14,11,41,22.10
2014,09,14,11,42,22.10
2014,09,14,11,43,22.10
2014,09,14,11,44,22.00
2014,09,14,11,45,22.00
2014,09,14,11,46,22.00
2014,09,14,11,47,22.10
2014,09,14,11,48,22.10
2014,09,14,11,49,22.10
2014,09,14,11,50,22.10
2014,09,14,11,51,22.20
2014,09,14,11,52,22.20
2014,09,14,11,53,22.10
2014,09,14,11,54,22.10
2014,09,14,11,55,22.10
2014,09,14,11,56,22.00
2014,09,14,11,57,22.00
2014,09,14,11,58,22.00
2014,09,14,11,59,21.90
2014,09,14,12,00,21.80
2014,09,14,12,01,21.80
2014,09,14,12,02,21.70
2014,09,14,12,03,21.70
2014,09,14,12,04,21.70
2014,09,14,12,05,21.70
2014,09,14,12,06,21.70
2014,09,14,12,07,21.60
2014,09,14,12,08,21.60
2014,09,14,12,09,21.50
2014,09,14,12,10,21.40
2014,09,14,12,11,21.40
2014,09,14,12,12,21.40
2014,09,14,12,13,21.30
2014,09,14,12,14,21.30
2014,09,14,12,15,21.30
2014,09,14,12,16,21.30
2014,09,14,12,17,21.30
2014,09,14,12,18,21.30
2014,09,14,12,19,21.30
2014,09,14,12,20,21.30
2014,09,14,12,21,21.30
2014,09,14,12,22,21.30
2014,09,14,12,23,21.30
2014,09,14,12,24,21.30
2014,09,14,12,25,21.30
2014,09,14,12,26,21.30
2014,09,14,12,27,21.30
2014,09,14,12,28,21.30
2014,09,14,12,29,21.40
2014,09,14,12,30,21.40
2014,09,14,12,31,21.40
2014,09,14,12,32,21.50
2014,09,14,12,33,21.50
2014,09,14,12,34,21.50
2014,09,14,12,35,21.60
2014,09,14,12,36,21.60
2014,09,14,12,37,21.60
2014,09,14,12,38,21.60
2014,09,14,12,39,21.60
2014,09,14,12,40,21.60
2014,09,14,12,41,21.60
2014,09,14,12,42,21.60
2014,09,14,12,43,21.60
2014,09,14,12,44,21.60
2014,09,14,12,45,21.70
2014,09,14,12,46,21.70
2014,09,14,12,47,21.80
2014,09,14,12,48,21.90
2014,09,14,12,49,21.90
2014,09,14,12,50,22.00
2014,09,14,12,51,22.00
2014,09,14,12,52,22.10
2014,09,14,12,53,22.20
2014,09,14,12,54,22.40
2014,09,14,12,55,22.50
2014,09,14,12,56,22.60
2014,09,14,12,57,22.60
2014,09,14,12,58,22.60
2014,09,14,12,59,22.60
2014,09,14,13,00,22.60
2014,09,14,13,01,22.60
2014,09,14,13,02,22.70
2014,09,14,13,03,22.80
2014,09,14,13,04,22.80
2014,09,14,13,05,23.00
2014,09,14,13,06,23.00
2014,09,14,13,07,23.00
2014,09,14,13,08,23.10
2014,09,14,13,09,23.10
2014,09,14,13,10,23.10
2014,09,14,13,11,23.10
2014,09,14,13,12,23.10
2014,09,14,13,13,23.10
2014,09,14,13,14,23.20
2014,09,14,13,15,23.20
2014,09,14,13,16,23.20
2014,09,14,13,17,23.20
2014,09,14,13,18,23.10
2014,09,14,13,19,23.10
2014,09,14,13,20,23.10
2014,09,14,13,21,23.10
2014,09,14,13,22,23.10
2014,09,14,13,23,23.10
2014,09,14,13,24,23.10
2014,09,14,13,25,23.20
2014,09,14,13,26,23.20
2014,09,14,13,27,23.20
2014,09,14,13,28,23.20
2014,09,14,13,29,23.20
2014,09,14,13,30,23.20
2014,09,14,13,31,23.20
2014,09,14,13,32,23.20
2014,09,14,13,33,23.20
2014,09,14,13,34,23.30
2014,09,14,13,35,23.20
2014,09,14,13,36,23.20
2014,09,14,13,37,23.20
2014,09,14,13,38,23.20
2014,09,14,13,39,23.30
2014,09,14,13,40,23.30
2014,09,14,13,41,23.40
2014,09,14,13,42,23.40
2014,09,14,13,43,23.50
2014,09,14,13,44,23.50
2014,09,14,13,45,23.60
2014,09,14,13,46,23.60
2014,09,14,13,47,23.60
2014,09,14,13,48,23.60
2014,09,14,13,49,23.60
2014,09,14,13,50,23.70
2014,09,14,13,51,23.70
2014,09,14,13,52,23.70
2014,09,14,13,53,23.60
2014,09,14,13,54,23.60
2014,09,14,13,55,23.60
2014,09,14,13,56,23.70
2014,09,14,13,57,23.70
2014,09,14,13,58,23.70
2014,09,14,13,59,23.80
2014,09,14,14,00,23.80
2014,09,14,14,01,23.90
2014,09,14,14,02,24.00
2014,09,14,14,03,24.10
2014,09,14,14,04,24.10
2014,09,14,14,05,24.10
2014,09,14,14,06,24.10
2014,09,14,14,07,24.10
2014,09,14,14,08,24.00
2014,09,14,14,09,24.00
2014,09,14,14,10,23.90
2014,09,14,14,11,23.90
2014,09,14,14,12,23.90
2014,09,14,14,13,23.90
2014,09,14,14,14,24.00
2014,09,14,14,15,24.00
2014,09,14,14,16,24.10
2014,09,14,14,17,24.10
2014,09,14,14,18,24.10
2014,09,14,14,19,24.00
2014,09,14,14,20,24.00
2014,09,14,14,21,24.00
2014,09,14,14,22,24.00
2014,09,14,14,23,24.00
2014,09,14,14,24,24.00
2014,09,14,14,25,24.00
2014,09,14,14,26,23.90
2014,09,14,14,27,23.90
2014,09,14,14,28,23.90
2014,09,14,14,29,23.90
2014,09,14,14,30,23.90
2014,09,14,14,31,23.90
2014,09,14,14,32,24.00
2014,09,14,14,33,24.10
2014,09,14,14,34,24.10
2014,09,14,14,35,24.10
2014,09,14,14,36,24.10
2014,09,14,14,37,24.10
2014,09,14,14,38,24.10
2014,09,14,14,39,24.10
2014,09,14,14,40,24.20
2014,09,14,14,41,24.20
2014,09,14,14,42,24.20
2014,09,14,14,43,24.20
2014,09,14,14,44,24.20
2014,09,14,14,45,24.20
2014,09,14,14,46,24.20
2014,09,14,14,47,24.20
2014,09,14,14,48,24.30
2014,09,14,14,49,24.40
2014,09,14,14,50,24.40
2014,09,14,14,51,24.50
2014,09,14,14,52,24.60
2014,09,14,14,53,24.60
2014,09,14,14,54,24.70
2014,09,14,14,55,24.70
2014,09,14,14,56,24.80
2014,09,14,14,57,24.90
2014,09,14,14,58,25.00
2014,09,14,14,59,25.00
2014,09,14,15,00,25.10
2014,09,14,15,01,25.10
2014,09,14,15,02,25.20
2014,09,14,15,03,25.20
2014,09,14,15,04,25.20
2014,09,14,15,05,25.20
2014,09,14,15,06,25.10
2014,09,14,15,07,25.10
2014,09,14,15,08,25.10
2014,09,14,15,09,25.00
2014,09,14,15,10,24.90
2014,09,14,15,11,24.90
2014,09,14,15,12,24.80
2014,09,14,15,13,24.70
2014,09,14,15,14,24.60
2014,09,14,15,15,24.60
2014,09,14,15,16,24.60
2014,09,14,15,17,24.50
2014,09,14,15,18,24.50
2014,09,14,15,19,24.50
2014,09,14,15,20,24.50
2014,09,14,15,21,24.50
2014,09,14,15,22,24.50
2014,09,14,15,23,24.40
2014,09,14,15,24,24.40
2014,09,14,15,25,24.40
2014,09,14,15,26,24.40
2014,09,14,15,27,24.50
2014,09,14,15,28,24.50
2014,09,14,15,29,24.60
2014,09,14,15,30,24.70
2014,09,14,15,31,24.80
2014,09,14,15,32,24.80
2014,09,14,15,33,24.80
2014,09,14,15,34,24.80
2014,09,14,15,35,24.70
2014,09,14,15,36,24.70
2014,09,14,15,37,24.70
2014,09,14,15,38,24.70
2014,09,14,15,39,24.70
2014,09,14,15,40,24.70
2014,09,14,15,41,24.70
2014,09,14,15,42,24.70
2014,09,14,15,43,24.70
2014,09,14,15,44,24.70
2014,09,14,15,45,24.70
2014,09,14,15,46,24.80
2014,09,14,15,47,24.80
2014,09,14,15,48,24.80
2014,09,14,15,49,24.90
2014,09,14,15,50,24.90
2014,09,14,15,51,24.90
2014,09,14,15,52,24.90
2014,09,14,15,53,24.90
2014,09,14,15,54,24.90
2014,09,14,15,55,24.80
2014,09,14,15,56,24.80
2014,09,14,15,57,24.80
2014,09,14,15,58,24.90
2014,09,14,15,59,24.90
2014,09,14,16,00,24.90
2014,09,14,16,01,24.90
2014,09,14,16,02,24.90
2014,09,14,16,03,24.90
2014,09,14,16,04,24.90
2014,09,14,16,05,24.90
2014,09,14,16,06,24.90
2014,09,14,16,07,24.90
2014,09,14,16,08,24.90
2014,09,14,16,09,25.00
2014,09,14,16,10,25.10
2014,09,14,16,11,25.10
2014,09,14,16,12,25.20
2014,09,14,16,13,25.30
2014,09,14,16,14,25.30
2014,09,14,16,15,25.30
2014,09,14,16,16,25.30
2014,09,14,16,17,25.30
2014,09,14,16,18,25.30
2014,09,14,16,19,25.30
2014,09,14,16,20,25.30
2014,09,14,16,21,25.20
2014,09,14,16,22,25.20
2014,09,14,16,23,25.20
2014,09,14,16,24,25.10
2014,09,14,16,25,25.10
2014,09,14,16,26,25.10
2014,09,14,16,27,25.10
2014,09,14,16,28,25.00
2014,09,14,16,29,25.00
2014,09,14,16,30,25.00
2014,09,14,16,31,25.00
2014,09,14,16,32,25.00
2014,09,14,16,33,25.00
2014,09,14,16,34,25.10
2014,09,14,16,35,25.10
2014,09,14,16,36,25.20
2014,09,14,16,37,25.20
2014,09,14,16,38,25.30
2014,09,14,16,39,25.30
2014,09,14,16,40,25.30
2014,09,14,16,41,25.30
2014,09,14,16,42,25.30
2014,09,14,16,43,25.30
2014,09,14,16,44,25.40
2014,09,14,16,45,25.40
2014,09,14,16,46,25.40
2014,09,14,16,47,25.50
2014,09,14,16,48,25.50
2014,09,14,16,49,25.60
2014,09,14,16,50,25.60
2014,09,14,16,51,25.60
2014,09,14,16,52,25.70
2014,09,14,16,53,25.70
2014,09,14,16,54,25.70
2014,09,14,16,55,25.70
2014,09,14,16,56,25.70
2014,09,14,16,57,25.70
2014,09,14,16,58,25.70
2014,09,14,16,59,25.80
2014,09,14,17,00,25.80
2014,09,14,17,01,25.90
2014,09,14,17,02,26.00
2014,09,14,17,03,26.00
2014,09,14,17,04,26.00
2014,09,14,17,05,26.10
2014,09,14,17,06,26.10
2014,09,14,17,07,26.10
2014,09,14,17,08,26.10
2014,09,14,17,09,26.20
2014,09,14,17,10,26.20
2014,09,14,17,11,26.20
2014,09,14,17,12,26.20
2014,09,14,17,13,26.20
2014,09,14,17,14,26.20
2014,09,14,17,15,26.30
2014,09,14,17,16,26.30
2014,09,14,17,17,26.30
2014,09,14,17,18,26.30
2014,09,14,17,19,26.30
2014,09,14,17,20,26.30